Weather History for Alturas, CA

Change the Weather History Date:

Tuesday, March 12, 2013

  Actual Average Record
Temperature  
Mean Temperature 46 °F 38 °F  
Max Temperature 69 °F 52 °F 73 °F (1934)
Min Temperature 23 °F 25 °F -15 °F (1917)
Degree Days  
Heating Degree Days 19 27  
Month to date heating degree days 319 331  
Since 1 July heating degree days 4905 5198  
Cooling Degree Days 0 0  
Month to date cooling degree days 0 0  
Year to date cooling degree days 0 0  
Moisture  
Dew Point 27 °F    
Average Humidity 59    
Maximum Humidity 100    
Minimum Humidity 17    
Precipitation  
Precipitation 0.00 in 0.05 in 1.00 in (1971)
Month to date precipitation 0.11 0.56  
Year to date precipitation 0.84 3.66  
Sea Level Pressure  
Sea Level Pressure 30.21 in    
Wind  
Wind Speed 2 mph (WNW)    
Max Wind Speed 10 mph    
Max Gust Speed 15 mph    
Visibility 9 miles    
Events      
T = Trace of Precipitation, MM = Missing Value Source: NWS Daily Summary

Daily Weather History Graph

Daily Weather History Graph

Search for Another Location

Airport:

Trip Planner

Search our weather history database for the weather conditions in past years. The results will help you decide how hot, cold, wet, or windy it might be!

Date:

Astronomy

Mar. 12, 2013 Rise Set
Actual Time 7:18 AM PDT 7:05 PM PDT
Civil Twilight 6:50 AM PDT 7:33 PM PDT
Nautical Twilight 6:18 AM PDT 8:05 PM PDT
Astronomical Twilight 5:46 AM PDT 8:38 PM PDT
Moon 7:26 AM PDT (3/12) 8:28 PM PDT (3/12)
Length of Visible Light 12h 42m
Length of Day
11h 47m
New Moon, 1% of the Moon is Illuminated
Mar 12
New Moon
Mar 19
First Quarter
Mar 27
Full
Apr 2
Last Quarter
Apr 10
New

Hourly Weather History & Observations

Time (PDT) Temp. Windchill Dew Point Humidity Pressure Visibility Wind Dir Wind Speed Gust Speed Precip Events Conditions
12:55 AM 32.0 °F 28.7 °F 28.9 °F 88% 30.24 in 7.0 mi NE 3.5 mph - N/A   Clear
1:55 AM 30.0 °F - 28.0 °F 92% 30.24 in 4.0 mi Calm Calm - N/A   Clear
2:55 AM 28.0 °F - 26.1 °F 92% 30.24 in 10.0 mi Calm Calm - N/A   Clear
3:55 AM 28.9 °F - 26.1 °F 89% 30.21 in 10.0 mi Calm Calm - N/A   Clear
4:55 AM 28.0 °F - 27.0 °F 96% 30.22 in 9.0 mi Calm Calm - N/A   Clear
5:55 AM 26.1 °F - 24.1 °F 92% 30.23 in 9.0 mi Calm Calm - N/A   Clear
6:55 AM 25.0 °F - 24.1 °F 96% 30.25 in 6.0 mi Calm Calm - N/A   Clear
7:55 AM 25.0 °F - 25.0 °F 100% 30.28 in 4.0 mi Calm Calm - N/A   Clear
8:55 AM 33.1 °F - 30.0 °F 89% 30.27 in 10.0 mi Calm Calm - N/A   Clear
9:55 AM 43.0 °F - 34.0 °F 71% 30.25 in 10.0 mi Calm Calm - N/A   Clear
10:55 AM 48.9 °F - 33.1 °F 54% 30.23 in 10.0 mi Variable 3.5 mph - N/A   Clear
11:55 AM 57.9 °F - 32.0 °F 37% 30.21 in 10.0 mi Variable 3.5 mph - N/A   Clear
12:55 PM 62.1 °F - 32.0 °F 32% 30.19 in 10.0 mi Calm Calm - N/A   Clear
1:55 PM 66.0 °F - 30.9 °F 27% 30.16 in 10.0 mi Variable 6.9 mph - N/A   Clear
2:55 PM 66.9 °F - 28.9 °F 24% 30.14 in 10.0 mi WSW 6.9 mph - N/A   Clear
3:55 PM 68.0 °F - 21.9 °F 17% 30.14 in 10.0 mi WNW 5.8 mph - N/A   Clear
4:55 PM 66.9 °F - 23.0 °F 19% 30.13 in 10.0 mi West 3.5 mph - N/A   Clear
5:55 PM 63.0 °F - 23.0 °F 22% 30.14 in 10.0 mi West 4.6 mph - N/A   Clear
6:55 PM 57.0 °F - 25.0 °F 29% 30.17 in 10.0 mi West 5.8 mph - N/A   Clear
7:55 PM 50.0 °F - 25.0 °F 38% 30.19 in 10.0 mi NE 3.5 mph - N/A   Clear
8:55 PM 48.0 °F - 28.0 °F 46% 30.21 in 10.0 mi ESE 4.6 mph - N/A   Clear
9:55 PM 36.0 °F - 27.0 °F 70% 30.23 in 10.0 mi Calm Calm - N/A   Clear
10:55 PM 36.0 °F - 27.0 °F 70% 30.23 in 10.0 mi Calm Calm - N/A   Clear
11:55 PM 33.1 °F - 26.1 °F 75% 30.22 in 7.0 mi Calm Calm - N/A   Clear